#timestamp,LO_Frequency,Hit 
1501534815.5,286047033.5,N
1501534835.3,286047035.7,N
1501534855.1,286047034.9,N
1501534875.9,286047035.4,N
1501534895.7,286047035.8,N
1501534915.5,286047034.9,N
1501534935.4,286047037.1,N
1501534955.2,286047035.6,N
1501534975.0,286047035.7,N
1501534975.9,286047035.7,N
1501534995.7,286047037.6,N
1501535015.6,286047035.1,N
1501535035.4,286047035.0,N
1501535055.2,286047037.4,N
1501535075.1,286047035.2,N
1501535076.0,286047035.2,N
1501535095.8,286047034.9,N
1501535115.6,286047036.7,N
1501535135.5,286047035.2,N
1501535155.3,286047034.4,N
1501535175.1,286047035.5,N
1501535195.9,286047038.0,N
1501535215.7,286047034.9,N
1501535235.5,286047035.3,N
1501535255.4,286047033.9,N
1501535275.2,286047034.6,N
1501535295.0,286047034.6,N
1501535295.9,286047034.6,N
1501535315.8,286047034.4,N
1501535335.6,286047034.4,N
1501535355.4,286047034.7,N
1501535375.3,286047036.1,N
1501535395.1,286047035.0,N
1501535396.0,286047035.0,N
1501535415.8,286047039.5,N
1501535435.7,286047034.9,N
1501535455.5,286047035.1,N
1501535475.3,286047035.5,N
1501535495.1,286047033.5,N
1501535515.9,286047036.0,N
1501535535.7,286047034.1,N
1501535555.5,286047036.1,N
1501535575.4,286047035.0,N
1501535595.2,286047037.7,N
1501535615.0,286047035.0,N
1501535615.9,286047035.0,N
1501535635.8,286047035.4,N
1501535655.6,286047035.5,N
1501535675.4,286047036.0,N
1501535695.3,286047034.1,N
1501535715.1,286047034.3,N
1501535716.0,286047034.3,N
1501535735.8,286047034.2,N
1501535755.7,286047031.8,N
1501535775.5,286047031.8,N
1501535795.3,286047032.1,N
1501535815.2,286047034.7,N
1501535835.9,286047034.7,N
1501535855.7,286047030.5,N
1501535875.5,286047033.0,N
1501535895.4,286047032.8,N
1501535915.2,286047030.6,N
1501535935.0,286047031.1,N
1501535935.9,286047031.1,N
1501535955.8,286047030.3,N
1501535975.6,286047030.6,N
1501535995.4,286047033.1,N
1501536015.3,286047032.0,N
1501536035.1,286047033.3,N
1501536036.0,286047033.3,N
1501536055.8,286047036.3,N
1501536075.7,286047035.1,N
1501536095.5,286047035.6,N
1501536115.3,286047037.6,N
1501536135.2,286047033.5,N
1501536155.9,286047035.1,N
1501536175.7,286047037.8,N
1501536195.6,286047037.6,N
1501536215.4,286047035.9,N
1501536235.2,286047035.6,N
1501536255.0,286047036.1,N
1501536255.9,286047036.1,N
1501536275.8,286047037.5,N
1501536295.6,286047035.7,N
1501536315.4,286047035.0,N
1501536335.3,286047036.2,N
1501536355.1,286047034.9,N
1501536375.8,286047037.3,N
1501536395.7,286047035.0,N
1501536415.5,286047038.4,N
1501536435.3,286047038.7,N
1501536455.2,286047037.0,N
1501536475.9,286047037.6,N
1501536495.7,286047037.0,N
1501536515.6,286047037.1,N
1501536535.4,286047040.9,N
1501536555.2,286047041.4,N
1501536575.0,286047039.0,N
1501536575.9,286047039.0,N
1501536595.8,286047037.6,N
1501536615.6,286047043.1,N
1501536635.5,286047046.0,Y
1501536655.3,286047006.2,N
1501536675.1,286047004.6,N
1501536695.8,286047006.8,N
1501536715.7,286047006.6,N
1501536735.5,286047008.3,N
1501536755.3,286047004.6,N
1501536775.2,286047000.6,N
1501536795.0,286047004.8,N
1501536795.9,286047004.8,N
1501536815.7,286047004.8,N
1501536835.6,286047001.5,N
1501536855.4,286047003.8,N
1501536875.2,286047003.2,N
1501536895.1,286047009.1,N
1501536896.0,286047009.1,N
1501536915.8,286047008.7,N
1501536935.6,286047006.5,N
1501536955.5,286047008.8,N
1501536975.3,286047003.6,N
1501536995.1,286047006.1,N
1501537015.9,286047006.7,N
1501537035.7,286047006.8,N
1501537055.5,286047003.5,N
1501537075.4,286047009.2,N
1501537095.2,286047006.4,N
1501537115.0,286047019.3,N
1501537115.9,286047019.3,N
1501537135.7,286047019.4,N
1501537155.6,286047018.9,N
1501537175.4,286047017.6,N
1501537195.2,286047017.4,N
1501537215.1,286047017.7,N
1501537216.0,286047017.7,N
1501537235.8,286047018.0,N
1501537255.6,286047019.6,N
1501537275.5,286047019.7,N
1501537295.3,286047020.3,N
1501537315.1,286047015.8,N
1501537335.9,286047017.8,N
1501537355.7,286047018.1,N
1501537375.5,286047020.1,N
1501537395.4,286047019.8,N
1501537415.2,286047019.0,N
1501537435.0,286047020.7,N
1501537435.9,286047020.7,N
1501537455.8,286047022.4,N
1501537475.6,286047025.1,N
1501537495.4,286047023.8,N
1501537515.3,286047024.9,N
1501537535.1,286047025.0,N
1501537536.0,286047025.0,N
1501537555.8,286047025.2,N
1501537575.6,286047023.9,N
1501537595.5,286047023.9,N
1501537615.3,286047024.7,N
1501537635.1,286047023.7,N
1501537655.9,286047025.6,N
1501537675.7,286047026.3,N
1501537695.5,286047024.3,N
1501537715.4,286047023.9,N
1501537735.2,286047027.8,N
1501537755.0,286047026.2,N
1501537755.9,286047026.2,N
1501537775.8,286047024.1,N
1501537795.6,286047025.0,N
1501537815.4,286047026.8,N
1501537835.3,286047024.3,N
1501537855.1,286047006.6,N
1501537856.0,286047006.6,N
1501537875.8,286047008.9,N
1501537895.7,286047024.8,N
1501537915.5,286047006.5,N
1501537935.3,286047007.1,N
1501537955.2,286047008.0,N
1501537975.9,286047008.6,N
1501537995.7,286047026.6,N
1501538015.5,286047010.8,N
1501538035.4,286047009.5,N
1501538055.2,286047025.4,N
1501538075.0,286047028.1,N
1501538075.9,286047028.1,N
1501538095.8,286047027.9,N
1501538115.6,286047028.0,N
1501538135.4,286047010.1,N
1501538155.3,286047009.8,N
1501538175.1,286047007.7,N
1501538195.8,286047007.8,N
1501538215.7,286047008.7,N
1501538235.5,286047006.7,N
1501538255.3,286047022.4,N
1501538275.2,286047024.2,N
1501538295.9,286047008.3,N
1501538315.7,286047008.0,N
1501538335.6,286047010.7,N
1501538355.4,286047008.1,N
1501538375.2,286047010.0,N
1501538395.1,286047023.9,N
1501538396.0,286047023.9,N
